TimeCDT,TemperatureF,Dew PointF,Humidity,Sea Level PressureIn,VisibilityMPH,Wind Direction,Wind SpeedMPH,Gust SpeedMPH,PrecipitationIn,Events,Conditions,WindDirDegrees,DateUTC
12:53 AM,64.9,64.0,97,30.18,5.0,NE,3.5,-,N/A,,Clear,50,2012-10-13 05:53:00
1:53 AM,64.9,64.0,97,30.18,5.0,Calm,Calm,-,N/A,,Clear,0,2012-10-13 06:53:00
2:20 AM,62.6,62.6,100,30.18,1.8,Calm,Calm,-,N/A,,Clear,0,2012-10-13 07:20:00
2:28 AM,62.6,62.6,100,30.18,0.5,Calm,Calm,-,N/A,Fog,Fog,0,2012-10-13 07:28:00
2:39 AM,62.6,62.6,100,30.18,0.5,Calm,Calm,-,N/A,Fog,Fog,0,2012-10-13 07:39:00
2:53 AM,64.0,64.0,100,30.17,1.2,Calm,Calm,-,N/A,,Scattered Clouds,0,2012-10-13 07:53:00
3:15 AM,64.4,62.6,94,30.17,3.0,Calm,Calm,-,N/A,,Mostly Cloudy,0,2012-10-13 08:15:00
3:53 AM,63.0,63.0,100,30.17,3.0,Calm,Calm,-,N/A,,Mostly Cloudy,0,2012-10-13 08:53:00
4:27 AM,62.6,62.6,100,30.18,2.0,Calm,Calm,-,N/A,,Mostly Cloudy,0,2012-10-13 09:27:00
4:42 AM,62.6,62.6,100,30.17,4.0,Calm,Calm,-,N/A,,Scattered Clouds,0,2012-10-13 09:42:00
4:53 AM,62.1,61.0,96,30.17,2.0,Calm,Calm,-,N/A,,Partly Cloudy,0,2012-10-13 09:53:00
4:59 AM,62.6,62.6,100,30.17,0.8,Calm,Calm,-,N/A,,Clear,0,2012-10-13 09:59:00
5:10 AM,62.6,62.6,100,30.17,0.5,Calm,Calm,-,N/A,Fog,Fog,0,2012-10-13 10:10:00
5:42 AM,62.6,60.8,94,30.18,4.0,Calm,Calm,-,N/A,,Clear,0,2012-10-13 10:42:00
5:53 AM,62.1,61.0,96,30.18,4.0,Calm,Calm,-,N/A,,Partly Cloudy,0,2012-10-13 10:53:00
6:53 AM,62.1,61.0,96,30.19,6.0,Calm,Calm,-,N/A,,Clear,0,2012-10-13 11:53:00
7:53 AM,64.9,63.0,93,30.20,6.0,South,3.5,-,N/A,,Clear,180,2012-10-13 12:53:00
8:53 AM,70.0,64.9,84,30.22,7.0,South,5.8,-,N/A,,Clear,190,2012-10-13 13:53:00
9:53 AM,73.9,66.0,76,30.22,10.0,SSW,5.8,-,N/A,,Clear,200,2012-10-13 14:53:00
10:53 AM,78.1,64.9,64,30.21,10.0,SSW,8.1,-,N/A,,Clear,200,2012-10-13 15:53:00
11:53 AM,80.1,64.0,58,30.18,10.0,SSW,12.7,-,N/A,,Partly Cloudy,200,2012-10-13 16:53:00
12:53 PM,82.4,62.6,51,30.15,10.0,South,19.6,25.3,N/A,,Scattered Clouds,180,2012-10-13 17:53:00
1:53 PM,82.9,62.1,49,30.11,10.0,South,17.3,-,N/A,,Mostly Cloudy,180,2012-10-13 18:53:00
2:53 PM,84.0,60.1,44,30.08,10.0,South,18.4,-,N/A,,Clear,190,2012-10-13 19:53:00
3:53 PM,84.0,59.0,43,30.06,10.0,South,16.1,-,N/A,,Clear,190,2012-10-13 20:53:00
4:53 PM,82.0,60.1,47,30.06,10.0,South,11.5,-,N/A,,Clear,190,2012-10-13 21:53:00
5:53 PM,78.1,62.1,58,30.06,10.0,SSE,6.9,-,N/A,,Clear,160,2012-10-13 22:53:00
7:53 PM,71.1,63.0,75,30.05,10.0,South,6.9,-,N/A,,Clear,170,2012-10-14 00:53:00
8:53 PM,72.0,63.0,73,30.06,10.0,South,8.1,-,N/A,,Clear,170,2012-10-14 01:53:00
9:53 PM,73.0,63.0,71,30.05,10.0,SSE,12.7,-,N/A,,Clear,160,2012-10-14 02:53:00
11:53 PM,71.1,64.9,81,30.04,10.0,South,13.8,-,N/A,,Clear,180,2012-10-14 04:53:00